Tracking 28309 objects as of 1-Dec-2023
HD Live streaming from Space Station
objects crossing your sky now

ONEWEB-0568

Track ONEWEB-0568 now!
10-day predictions
ONEWEB-0568 is classified as:


NORAD ID: 56062
Int'l Code: 2023-043S
Perigee: 1,152.5 km
Apogee: 1,158.3 km
Inclination: 88.0 °
Period: 108.3 minutes
Semi major axis: 7526 km
RCS: Unknown
Launch date: March 26, 2023
Source: United Kingdom (UK)
Launch site: SRIHARIKOTA (SRI)
Your satellite tracking list
Your tracking list is empty




NASA's NSSDC Master Catalog

Two Line Element Set (TLE):
1 56062U 23043S   23334.24056667  .00001172  00000-0  24963-2 0  9999
2 56062  87.9820  53.8202 0003802  96.9928 263.1643 13.29603502 37502
Source of the keplerian elements: AFSPC